KC0AFB Weather Reports


time (UTC)temp
C
wind
direction
speed
KPH
gust
KPH
rain 1hr
cm
rain 24hr
cm
rain mn
cm
humidity
%
barometer
mb
20260905060744 23 59 22.5 27.4 0.00 0.00 0.00 74 1012.2
20260905060242 23 102 17.7 20.9 0.00 0.00 0.00 73 1012.4
20260905055740 23 94 14.5 20.9 0.00 0.00 0.00 73 1012.4
20260905055235 23 76 19.3 24.1 0.00 0.00 0.00 73 1012.2
20260905054730 23 61 17.7 22.5 0.00 0.00 0.00 73 1012.5
20260905054227 23 119 17.7 20.9 0.00 0.00 0.00 73 1012.2
20260905053725 23 130 29.0 37.0 0.00 0.00 0.00 74 1012.3
20260905053221 23 108 17.7 20.9 0.00 0.00 0.00 74 1012.5
20260905052715 23 108 22.5 25.7 0.00 0.00 0.00 75 1012.4
20260905052210 23 91 12.9 14.5 0.00 0.00 0.00 74 1012.5
20260905051710 23 107 11.3 14.5 0.00 0.00 0.00 74 1013.0
20260905051207 23 102 16.1 20.9 0.00 0.00 0.00 73 1012.6
20260905050702 23 132 16.1 20.9 0.00 0.00 0.00 73 1012.6
20260905050159 23 120 17.7 22.5 0.00 0.00 0.00 73 1012.5
20260905045658 23 118 16.1 17.7 0.00 0.00 0.00 74 1012.5
20260905045154 23 101 12.9 14.5 0.00 0.00 0.00 74 1012.4
20260905044649 23 65 14.5 20.9 0.00 0.00 0.00 74 1012.6
20260905044144 23 90 11.3 14.5 0.00 0.00 0.00 74 1012.4
20260905043642 23 73 14.5 17.7 0.00 0.00 0.00 74 1012.5
20260905043138 23 120 14.5 22.5 0.00 0.00 0.00 73 1012.4
20260905042637 23 116 19.3 24.1 0.00 0.00 0.00 73 1012.6
20260905042131 23 139 16.1 22.5 0.00 0.00 0.00 73 1012.6
20260905041627 23 102 11.3 14.5 0.00 0.00 0.00 73 1012.7
20260905041122 23 124 11.3 14.5 0.00 0.00 0.00 72 1012.6
20260905040617 23 106 14.5 16.1 0.00 0.00 0.00 72 1012.5
20260905040116 23 122 11.3 12.9 0.00 0.00 0.00 72 1012.6
20260905035611 23 119 16.1 16.1 0.00 0.00 0.00 72 1012.7
20260905035107 23 95 14.5 20.9 0.00 0.00 0.00 72 1012.5
20260905034603 23 91 17.7 20.9 0.00 0.00 0.00 72 1012.7
20260905034057 24 128 9.7 14.5 0.00 0.00 0.00 72 1012.7
20260905033551 23 162 17.7 22.5 0.00 0.00 0.00 72 1012.6
20260905033047 23 137 19.3 25.7 0.00 0.00 0.00 72 1012.5
20260905032546 23 100 14.5 17.7 0.00 0.00 0.00 72 1012.9
20260905032041 23 125 16.1 20.9 0.00 0.00 0.00 72 1012.9
20260905031537 23 98 16.1 24.1 0.00 0.00 0.00 72 1012.7
20260905031037 24 79 12.9 14.5 0.00 0.00 0.00 71 1013.1
20260905030527 24 108 12.9 16.1 0.00 0.00 0.00 70 1012.9
20260905030027 24 117 9.7 11.3 0.00 0.00 0.00 70 1012.7
20260905025522 24 100 16.1 20.9 0.00 0.00 0.00 70 1012.9
20260905025019 25 80 14.5 17.7 0.00 0.00 0.00 69 1013.0
20260905024513 25 68 19.3 20.9 0.00 0.00 0.00 68 1013.0
20260905024009 25 89 12.9 16.1 0.00 0.00 0.00 68 1013.1
20260905023509 25 78 12.9 14.5 0.00 0.00 0.00 68 1012.9
20260905023003 25 116 16.1 22.5 0.00 0.00 0.00 67 1013.0
20260905022458 25 91 14.5 22.5 0.00 0.00 0.00 67 1012.9
20260905021953 25 117 16.1 17.7 0.00 0.00 0.00 66 1012.7
20260905021452 25 93 14.5 16.1 0.00 0.00 0.00 66 1012.7
20260905020948 25 145 14.5 17.7 0.00 0.00 0.00 66 1013.0
20260905020447 25 107 14.5 22.5 0.00 0.00 0.00 66 1012.9
20260905015942 25 94 11.3 12.9 0.00 0.00 0.00 65 1013.1
20260905015440 25 107 8.0 9.7 0.00 0.00 0.00 65 1013.0
20260905014939 25 113 11.3 14.5 0.00 0.00 0.00 64 1012.7
20260905014435 25 127 11.3 14.5 0.00 0.00 0.00 64 1012.6
20260905013930 25 77 6.4 9.7 0.00 0.00 0.00 64 1013.0
20260905013427 26 100 8.0 9.7 0.00 0.00 0.00 63 1012.6
20260905012922 26 74 8.0 11.3 0.00 0.00 0.00 62 1012.5
20260905012417 26 113 8.0 9.7 0.00 0.00 0.00 61 1012.6
20260905011914 26 104 11.3 12.9 0.00 0.00 0.00 60 1012.5
20260905011408 26 107 14.5 16.1 0.00 0.00 0.00 59 1012.4
20260905010904 27 134 9.7 12.9 0.00 0.00 0.00 59 1012.5
20260905010359 27 100 8.0 9.7 0.00 0.00 0.00 58 1012.3
20260905005855 27 85 9.7 9.7 0.00 0.00 0.00 57 1012.6
20260905005350 27 123 14.5 16.1 0.00 0.00 0.00 56 1012.3
20260905004845 27 102 17.7 17.7 0.00 0.00 0.00 55 1012.2
20260905004340 28 99 12.9 12.9 0.00 0.00 0.00 54 1012.0
20260905003836 28 75 14.5 17.7 0.00 0.00 0.00 54 1012.1
20260905003332 28 95 14.5 17.7 0.00 0.00 0.00 53 1012.2
20260905002826 28 81 19.3 22.5 0.00 0.00 0.00 52 1012.1
20260905002321 28 79 16.1 24.1 0.00 0.00 0.00 51 1012.0
20260905001816 29 102 14.5 14.5 0.00 0.00 0.00 50 1011.9
20260905001315 29 105 14.5 17.7 0.00 0.00 0.00 50 1011.8
20260905000811 30 128 14.5 17.7 0.00 0.00 0.00 49 1012.0
20260905000306 30 115 12.9 14.5 0.00 0.00 0.00 49 1011.9
20260904235801 30 147 11.3 14.5 0.00 0.00 0.00 50 1011.8
20260904235256 30 118 11.3 12.9 0.00 0.00 0.00 52 1011.9
20260904234750 30 87 16.1 17.7 0.00 0.00 0.00 52 1012.0
20260904234240 30 87 17.7 25.7 0.00 0.00 0.00 54 1011.9
20260904233736 30 80 14.5 17.7 0.00 0.00 0.00 54 1011.7
20260904233232 29 68 12.9 17.7 0.00 0.00 0.00 57 1011.7
20260904232729 29 102 11.3 14.5 0.00 0.00 0.00 57 1011.9
20260904232225 29 95 17.7 24.1 0.00 0.00 0.00 56 1011.8
20260904231720 30 69 17.7 24.1 0.00 0.00 0.00 56 1011.7
20260904231215 30 123 14.5 16.1 0.00 0.00 0.00 56 1011.8
20260904230715 30 95 19.3 24.1 0.00 0.00 0.00 55 1011.7
20260904230209 30 98 14.5 17.7 0.00 0.00 0.00 55 1011.6
20260904225708 30 78 24.1 27.4 0.00 0.00 0.00 54 1011.6
20260904225202 30 88 19.3 29.0 0.00 0.00 0.00 54 1011.6
20260904224656 30 113 17.7 20.9 0.00 0.00 0.00 54 1011.7
20260904224151 30 104 14.5 16.1 0.00 0.00 0.00 54 1011.8
20260904223651 30 55 19.3 24.1 0.00 0.00 0.00 53 1011.8
20260904223146 30 57 14.5 20.9 0.00 0.00 0.00 52 1011.7
20260904222642 30 103 19.3 22.5 0.00 0.00 0.00 51 1012.0
20260904222137 30 85 24.1 27.4 0.00 0.00 0.00 50 1011.9
20260904221636 30 92 12.9 12.9 0.00 0.00 0.00 50 1011.7
20260904221132 30 106 22.5 27.4 0.00 0.00 0.00 48 1011.9
20260904220626 30 115 16.1 17.7 0.00 0.00 0.00 48 1012.2
20260904220122 31 127 17.7 20.9 0.00 0.00 0.00 46 1012.1
20260904215622 31 120 11.3 16.1 0.00 0.00 0.00 47 1012.1
20260904215118 31 127 12.9 14.5 0.00 0.00 0.00 45 1012.2
20260904214618 31 122 20.9 27.4 0.00 0.00 0.00 44 1012.0
20260904214114 31 90 19.3 22.5 0.00 0.00 0.00 44 1012.0
20260904213611 31 88 14.5 20.9 0.00 0.00 0.00 44 1012.0
20260904213108 31 102 19.3 27.4 0.00 0.00 0.00 45 1011.9
20260904212608 31 122 22.5 24.1 0.00 0.00 0.00 45 1012.0
20260904212103 31 136 25.7 29.0 0.00 0.00 0.00 44 1011.9
20260904211602 31 86 20.9 25.7 0.00 0.00 0.00 45 1011.9
20260904211058 31 147 14.5 22.5 0.00 0.00 0.00 46 1011.9
20260904210557 31 111 16.1 17.7 0.00 0.00 0.00 47 1012.1
20260904210053 31 119 16.1 20.9 0.00 0.00 0.00 47 1012.1
20260904205548 31 51 14.5 20.9 0.00 0.00 0.00 47 1012.2
20260904205045 31 125 25.7 29.0 0.00 0.00 0.00 46 1012.1
20260904204541 30 133 16.1 17.7 0.00 0.00 0.00 47 1012.2
20260904204036 31 122 16.1 17.7 0.00 0.00 0.00 47 1012.6
20260904203533 31 136 14.5 16.1 0.00 0.00 0.00 47 1012.5
20260904203029 31 108 14.5 17.7 0.00 0.00 0.00 47 1012.4
20260904202524 31 136 19.3 25.7 0.00 0.00 0.00 45 1012.4
20260904202021 31 96 17.7 22.5 0.00 0.00 0.00 44 1012.4
20260904201516 31 135 11.3 16.1 0.00 0.00 0.00 46 1012.6
20260904201011 31 85 16.1 17.7 0.00 0.00 0.00 44 1012.4
20260904200509 31 127 17.7 17.7 0.00 0.00 0.00 43 1012.5
20260904200005 31 93 8.0 9.7 0.00 0.00 0.00 43 1012.3
20260904195503 31 114 16.1 22.5 0.00 0.00 0.00 43 1012.2
20260904195002 31 139 17.7 20.9 0.00 0.00 0.00 41 1012.3
20260904194457 31 123 24.1 33.8 0.00 0.00 0.00 43 1012.2
20260904193952 30 90 14.5 16.1 0.00 0.00 0.00 46 1012.3
20260904193447 30 99 9.7 12.9 0.00 0.00 0.00 49 1012.5
20260904192942 30 106 12.9 17.7 0.00 0.00 0.00 51 1013.0
20260904192437 30 105 16.1 16.1 0.00 0.00 0.00 50 1012.6
20260904191934 30 122 20.9 24.1 0.00 0.00 0.00 50 1012.7
20260904191430 30 88 22.5 27.4 0.00 0.00 0.00 50 1013.0
20260904190926 30 72 19.3 22.5 0.00 0.00 0.00 50 1012.9
20260904190421 30 122 14.5 17.7 0.00 0.00 0.00 51 1013.2
20260904185918 30 134 12.9 16.1 0.00 0.00 0.00 52 1013.3
20260904185413 29 143 17.7 20.9 0.00 0.00 0.00 53 1013.5
20260904184913 30 140 8.0 9.7 0.00 0.00 0.00 53 1013.6
20260904184408 30 118 14.5 20.9 0.00 0.00 0.00 51 1013.4
20260904183903 29 153 19.3 22.5 0.00 0.00 0.00 52 1013.8
20260904183358 28 82 11.3 14.5 0.00 0.00 0.00 53 1013.9
20260904182854 29 114 17.7 17.7 0.00 0.00 0.00 53 1013.7
20260904182348 28 144 12.9 17.7 0.00 0.00 0.00 53 1013.7
20260904181843 28 134 12.9 14.5 0.00 0.00 0.00 55 1013.8
20260904181338 28 89 14.5 16.1 0.00 0.00 0.00 55 1013.9
20260904180833 28 135 14.5 20.9 0.00 0.00 0.00 56 1014.0
20260904180329 28 106 14.5 16.1 0.00 0.00 0.00 56 1013.9
20260904175828 28 126 17.7 20.9 0.00 0.00 0.00 57 1014.1
20260904175327 27 88 16.1 17.7 0.00 0.00 0.00 60 1014.4
20260904174827 27 154 14.5 16.1 0.00 0.00 0.00 59 1014.2
20260904174323 27 134 12.9 17.7 0.00 0.00 0.00 61 1014.4
20260904173819 27 124 14.5 16.1 0.00 0.00 0.00 63 1014.3
20260904173314 26 54 6.4 8.0 0.00 0.00 0.00 66 1014.2
20260904172810 26 90 8.0 9.7 0.00 0.00 0.00 64 1014.4
20260904172309 27 77 12.9 14.5 0.00 0.00 0.00 64 1014.5
20260904171804 26 92 11.3 12.9 0.00 0.00 0.00 66 1014.5
20260904171259 26 103 12.9 16.1 0.00 0.00 0.00 65 1014.4
20260904170755 26 75 11.3 14.5 0.00 0.00 0.00 67 1014.4
20260904170252 26 104 19.3 22.5 0.00 0.00 0.00 67 1014.1
20260904165750 25 97 9.7 14.5 0.00 0.00 0.00 70 1014.3
20260904165250 25 87 11.3 12.9 0.00 0.00 0.00 71 1014.2
20260904164744 25 100 11.3 12.9 0.00 0.00 0.00 72 1014.1
20260904164240 25 119 9.7 12.9 0.00 0.00 0.00 72 1014.3
20260904163736 25 118 12.9 14.5 0.00 0.00 0.00 72 1014.1
20260904163231 24 96 9.7 11.3 0.00 0.00 0.00 75 1014.1
20260904162730 24 85 17.7 20.9 0.00 0.00 0.00 74 1013.8
20260904162225 24 131 9.7 11.3 0.00 0.00 0.00 75 1013.9
20260904161720 23 89 12.9 16.1 0.00 0.00 0.00 76 1013.8
20260904161216 23 49 11.3 12.9 0.00 0.00 0.00 77 1013.9
20260904160711 23 64 11.3 11.3 0.00 0.00 0.00 78 1013.9
20260904160206 23 60 14.5 14.5 0.00 0.00 0.00 79 1013.9
20260904155706 22 59 16.1 17.7 0.00 0.00 0.00 80 1013.9
20260904155206 22 85 11.3 12.9 0.00 0.00 0.00 81 1013.9
20260904154704 22 74 17.7 22.5 0.00 0.00 0.00 82 1013.9
20260904154200 22 72 11.3 12.9 0.00 0.00 0.00 83 1014.0
20260904153655 21 93 11.3 12.9 0.00 0.00 0.00 83 1013.9
20260904153150 21 94 9.7 11.3 0.00 0.00 0.00 84 1014.2
20260904152647 21 90 12.9 16.1 0.00 0.00 0.00 85 1014.1
20260904152141 21 97 8.0 9.7 0.00 0.00 0.00 86 1014.1
20260904151636 20 88 14.5 14.5 0.00 0.00 0.00 86 1014.1
20260904151135 20 124 11.3 14.5 0.00 0.00 0.00 86 1014.1
20260904150631 20 81 8.0 12.9 0.00 0.00 0.00 87 1014.1
20260904150126 20 86 8.0 9.7 0.00 0.00 0.00 88 1014.2
20260904145625 20 74 11.3 16.1 0.00 0.00 0.00 88 1014.4
20260904145120 19 98 6.4 11.3 0.00 0.00 0.00 89 1014.0
20260904144616 18 101 11.3 14.5 0.00 0.00 0.00 89 1014.3
20260904144111 18 73 14.5 17.7 0.00 0.00 0.00 89 1014.3
20260904143607 18 65 14.5 16.1 0.00 0.00 0.00 90 1014.1
20260904143103 17 68 12.9 14.5 0.00 0.00 0.00 90 1014.4
20260904142559 17 119 8.0 9.7 0.00 0.00 0.00 91 1014.3
20260904142054 17 91 8.0 9.7 0.00 0.00 0.00 92 1014.4
20260904141549 17 122 8.0 9.7 0.00 0.00 0.00 93 1014.4
20260904141045 17 108 9.7 11.3 0.00 0.00 0.00 93 1014.5
20260904140540 17 104 8.0 9.7 0.00 0.00 0.00 94 1014.3
20260904140034 16 111 8.0 11.3 0.00 0.00 0.00 94 1014.3
20260904135533 16 61 4.8 8.0 0.00 0.00 0.00 95 1014.2
20260904135030 16 59 8.0 9.7 0.00 0.00 0.00 95 1014.3
20260904134525 16 73 4.8 8.0 0.00 0.00 0.00 95 1014.4
20260904134019 16 94 6.4 8.0 0.00 0.00 0.00 95 1014.8
20260904133513 16 70 4.8 8.0 0.00 0.00 0.00 95 1014.5
20260904133010 15 68 6.4 8.0 0.00 0.00 0.00 95 1014.5
20260904132504 15 58 4.8 4.8 0.00 0.00 0.00 96 1014.4
20260904132004 15 55 4.8 4.8 0.00 0.00 0.00 96 1014.6
20260904131458 15 104 1.6 1.6 0.00 0.00 0.00 96 1014.6
20260904130954 15 103 4.8 4.8 0.00 0.00 0.00 96 1014.3
20260904130453 15 70 3.2 4.8 0.00 0.00 0.00 96 1014.3
20260904125948 15 81 3.2 3.2 0.00 0.00 0.00 96 1014.4
20260904125445 14 68 4.8 8.0 0.00 0.00 0.00 96 1014.3
20260904124944 14 68 4.8 4.8 0.00 0.00 0.00 96 1014.3
20260904124440 14 79 4.8 4.8 0.00 0.00 0.00 96 1014.4
20260904123936 13 80 3.2 4.8 0.00 0.00 0.00 95 1014.1
20260904123430 14 52 4.8 4.8 0.00 0.00 0.00 95 1014.1
20260904122926 14 57 4.8 4.8 0.00 0.00 0.00 95 1014.1
20260904122426 14 70 4.8 4.8 0.00 0.00 0.00 95 1014.2
20260904121920 14 55 8.0 9.7 0.00 0.00 0.00 95 1014.1
20260904121417 14 79 4.8 4.8 0.00 0.00 0.00 95 1014.0
20260904120913 14 60 8.0 8.0 0.00 0.00 0.00 95 1013.8
20260904120409 14 61 4.8 4.8 0.00 0.00 0.00 95 1014.2
20260904115903 14 73 8.0 9.7 0.00 0.00 0.00 95 1013.9
20260904115359 14 68 4.8 4.8 0.00 0.00 0.00 95 1013.9
20260904114853 14 56 8.0 9.7 0.00 0.00 0.00 95 1014.2
20260904114348 15 87 8.0 9.7 0.00 0.00 0.00 95 1014.2
20260904113843 15 62 6.4 8.0 0.00 0.00 0.00 95 1014.1
20260904113343 15 68 6.4 8.0 0.00 0.00 0.00 95 1013.9
20260904112837 15 82 8.0 9.7 0.00 0.00 0.00 95 1014.2
20260904112333 15 70 6.4 9.7 0.00 0.00 0.00 95 1014.1
20260904111828 15 86 4.8 9.7 0.00 0.00 0.00 95 1014.0
20260904111324 15 77 4.8 8.0 0.00 0.00 0.00 95 1014.2
20260904110820 15 109 4.8 8.0 0.00 0.00 0.00 95 1014.1
20260904110319 15 91 8.0 9.7 0.00 0.00 0.00 95 1014.2
20260904105814 15 99 6.4 9.7 0.00 0.00 0.00 95 1014.4
20260904105314 15 103 8.0 11.3 0.00 0.00 0.00 95 1014.4
20260904104809 15 108 6.4 8.0 0.00 0.00 0.00 95 1014.2
20260904104304 15 110 9.7 11.3 0.00 0.00 0.00 95 1014.3
20260904103802 15 105 6.4 8.0 0.00 0.00 0.00 94 1014.0
20260904103300 15 94 8.0 9.7 0.00 0.00 0.00 94 1014.3
20260904102756 15 130 9.7 11.3 0.00 0.00 0.00 94 1014.1
20260904102252 15 92 8.0 8.0 0.00 0.00 0.00 94 1013.9
20260904101748 15 95 9.7 11.3 0.00 0.00 0.00 94 1013.9
20260904101244 15 113 8.0 9.7 0.00 0.00 0.00 94 1014.1
20260904100739 15 111 8.0 9.7 0.00 0.00 0.00 94 1013.9
20260904100235 15 90 11.3 12.9 0.00 0.00 0.00 94 1013.8
20260904095735 15 100 9.7 12.9 0.00 0.00 0.00 94 1013.7
20260904095230 15 76 8.0 9.7 0.00 0.00 0.00 94 1013.9
20260904094725 15 89 8.0 9.7 0.00 0.00 0.00 94 1013.7
20260904094225 15 86 12.9 14.5 0.00 0.00 0.00 93 1013.6
20260904093721 16 83 8.0 11.3 0.00 0.00 0.00 93 1013.5
20260904093220 16 75 9.7 12.9 0.00 0.00 0.00 93 1013.2
20260904092716 16 91 9.7 11.3 0.00 0.00 0.00 93 1013.4
20260904092213 16 104 6.4 9.7 0.00 0.00 0.00 93 1013.2
20260904091708 16 78 11.3 12.9 0.00 0.00 0.00 93 1013.0
20260904091203 16 87 9.7 11.3 0.00 0.00 0.00 93 1013.1
20260904090659 16 74 11.3 14.5 0.00 0.00 0.00 93 1013.0
20260904090155 16 55 11.3 12.9 0.00 0.00 0.00 93 1012.9
20260904085650 16 73 12.9 14.5 0.00 0.00 0.00 93 1012.7
20260904085149 16 66 8.0 9.7 0.00 0.00 0.00 93 1012.6
20260904084644 16 90 11.3 11.3 0.00 0.00 0.00 93 1012.4
20260904084141 16 65 8.0 11.3 0.00 0.00 0.00 93 1012.9
20260904083637 16 75 8.0 11.3 0.00 0.00 0.00 93 1012.9
20260904083133 16 82 8.0 11.3 0.00 0.00 0.00 93 1012.6
20260904082627 16 56 8.0 9.7 0.00 0.00 0.00 93 1012.3
20260904082123 16 82 8.0 11.3 0.00 0.00 0.00 93 1012.2
20260904081618 16 49 8.0 12.9 0.00 0.00 0.00 93 1012.4
20260904081113 16 59 6.4 9.7 0.00 0.00 0.00 93 1012.5
20260904080609 16 54 6.4 8.0 0.00 0.00 0.00 93 1012.3
20260904080105 16 54 8.0 11.3 0.00 0.00 0.00 93 1012.6
20260904075556 16 59 4.8 4.8 0.00 0.00 0.00 93 1012.7
20260904075055 16 75 4.8 8.0 0.00 0.00 0.00 93 1012.7
20260904074555 16 62 3.2 3.2 0.00 0.00 0.00 93 1012.9
20260904074050 16 76 4.8 4.8 0.00 0.00 0.00 93 1013.0
20260904073550 16 66 4.8 4.8 0.00 0.00 0.00 93 1012.9
20260904073047 16 48 4.8 8.0 0.00 0.00 0.00 93 1012.9
20260904072542 16 55 4.8 4.8 0.00 0.00 0.00 92 1012.6
20260904072037 16 65 3.2 3.2 0.00 0.00 0.00 92 1012.6
20260904071532 16 82 4.8 4.8 0.00 0.00 0.00 92 1012.7
20260904071027 16 78 8.0 9.7 0.00 0.00 0.00 92 1012.7
20260904070526 16 131 8.0 9.7 0.00 0.00 0.00 92 1012.5
20260904070021 17 124 4.8 4.8 0.00 0.00 0.00 92 1012.5
20260904065516 17 97 4.8 4.8 0.00 0.00 0.00 92 1012.9
20260904065012 17 93 3.2 3.2 0.00 0.00 0.00 92 1012.6
20260904064508 17 104 3.2 3.2 0.00 0.00 0.00 92 1012.5
20260904064003 17 67 3.2 3.2 0.00 0.00 0.00 92 1012.5
20260904063459 17 89 3.2 3.2 0.00 0.00 0.00 92 1012.3
20260904062954 17 65 3.2 3.2 0.00 0.00 0.00 92 1012.3
20260904062450 17 78 4.8 4.8 0.00 0.00 0.00 91 1012.2
20260904061946 17 74 6.4 8.0 0.00 0.00 0.00 91 1012.4
20260904061442 17 78 8.0 9.7 0.00 0.00 0.00 91 1012.3